Location: Roc des P�zouls
(43.9667°N, 3.5500°E)
Time: 15:41:23
(UTC+00:00)

STARLINK-52 - Pass Details

Date: 14 November 2019
Orbit: 443 x 445 km, 53.0° (Epoch: 10 December)

Event Time Altitude Azimuth Distance (km) Brightness Sun altitude
Exits shadow 04:32:52 37° 27° (NNE) 715 4.3 -22.7°
Drops below altitude 10° 04:35:14 10° 49° (NE) 1,569 6.5 -22.2°
Sets 04:37:24 0° 54° (NE) 2,443 7.7 -21.9°
